Weather in Turka

Ukraine / Lviv District     49˚09′26″N   23˚01′20″E
temp.,
°C
wind,
m/s
gust,
m/s
humid.,
%
clouds,
%
prec.,
mm/h
press.,
hPa
HPBL,
m
2 december, wed
wed223:00−5˚se11700 0.0 102721
02:00−6˚e11720 0.0 102721
05:00−7˚ese11760 0.0 102621
08:00−7˚e11850 0.0 102621
11:00−3˚ese12650 0.0 1026217
14:00e11530 0.0 1024303
17:00−5˚ese11750 0.0 102321
20:00−5˚s22630 0.0 102321
3 december, thu
thu323:00−5˚ssw225410 0.0 102221
02:00−5˚s23627 0.0 102127
05:00−5˚s23654 0.0 101938
08:00−4˚sse33673 0.0 101855
11:00+1˚s355393 0.0 1017181
14:00+3˚sse345296 0.0 1015137
17:00s235759 0.0 101425
20:00s235656 0.0 101430
4 december, fri
fri423:00s335323 0.0 101334
02:00+1˚s335559 0.0 101238
05:00+1˚s3361100 0.0 101148
08:00+2˚s336594 0.0 101041
11:00+5˚s236352 0.0 101179
14:00+6˚sse236540 0.0 101078
17:00+2˚s337233 0.0 101040
20:00+2˚sse347465 0.0 101187
5 december, sat
sat523:00+2˚sse348134 0.0 101172
02:00+2˚sse348318 0.0 101253
05:00+3˚sse34848 0.0 101162
08:00+3˚sse34876 0.0 101251
11:00+6˚sse35800 0.0 1012184
14:00+8˚se25820 0.0 1012156
17:00+4˚sse33860 0.0 101230
20:00+3˚sse348815 0.0 101375
6 december, sun
sun623:00+3˚sse338721 0.0 101438
02:00+3˚sse348827 0.0 101456
05:00+3˚sse338878 0.0 101353
08:00+3˚se228789 0.0 101324
11:00+5˚e2285100 0.0 101277
14:00+5˚e2288100 0.0 1010128
17:00+2˚e229673 0.0 100926
20:00+1˚e229866 0.0 100979